Location: Halle
(51.9908°N, 9.5640°E)
Time: 11:58:51
(UTC+00:00)

Daily predictions for brighter satellites

Satellite Brightness Start Highest point End
(mag) Time Altitude Azimuth Time Altitude Azimuth Time Altitude Azimuth
USA 59 Rocket 0.2 20:10:46 10° NW 20:14:31 69° SW 20:19:40 10° SE
ERS-1 Rocket 3.0 20:09:33 10° SSE 20:14:34 81° ENE 20:19:38 10° NNW
SPOT 3 Rocket 3.8 20:11:29 10° SSE 20:16:30 60° ENE 20:21:35 10° N
Lacrosse 4 Rocket 1.4 20:13:04 10° NNW 20:17:10 74° NE 20:21:19 10° SE
NOSS 2-1 (E) 3.8 20:13:50 10° NW 20:17:35 66° SW 20:22:45 10° SSE
Cosmos 1818 4.3 20:13:32 10° S 20:18:18 32° ESE 20:23:06 10° NE
Cosmos 1340 Rocket 3.1 20:14:49 10° S 20:18:41 50° E 20:22:33 10° NNE
Meteor 1-27 Rocket 3.8 20:15:51 10° S 20:21:17 65° E 20:26:51 10° NNE
Resurs 01 Rocket 4.1 20:19:58 10° SW 20:23:13 20° W 20:26:28 10° NW
IRS-1C Rocket 4.5 20:19:11 10° S 20:24:25 66° WSW 20:29:41 10° NNW
Okean O Rocket 3.9 20:22:13 10° SW 20:25:39 22° W 20:29:06 10° NW
Cosmos 1805 3.4 20:25:19 10° N 20:28:59 54° ENE 20:32:37 10° SSE
Terra 1.9 20:25:05 10° SSE 20:29:48 88° WSW 20:34:33 10° NNW
Cosmos 1833 Rocket 4.1 20:26:41 10° SE 20:30:37 20° E 20:34:34 10° NE
NOSS 2-1 (D) 4.1 20:27:02 10° NW 20:30:43 50° SW 20:35:43 10° SSE
Cosmos 1656 3.7 20:26:07 10° NNW 20:31:37 77° ENE 20:37:08 10° SE
Cosmos 1743 Rocket 3.7 20:29:17 10° NNW 20:33:42 79° W 20:38:09 10° S
Cosmos 1603 4.2 20:35:27 10° SW 20:41:07 66° NW 20:46:51 10° NNE
Okean 1 3.8 20:37:57 10° SSW 20:41:48 61° WNW 20:45:41 10° N
ARGOS Delta rocket 4.4 20:40:16 10° S 20:45:01 54° W 20:49:33 10° NNW
Centaur D AC-29 4.5 20:39:28 10° S 20:45:36 19° SE 21:02:39 10° ESE
Landsat 5 3.9 20:44:08 10° NNE 20:47:42 37° E 20:51:05 11° SSE
Cosmos 1151 Rocket 3.0 20:44:29 10° S 20:48:48 76° E 20:53:08 10° NNE
Cosmos 2360 4.4 20:43:59 10° NNW 20:49:43 68° NE 20:55:00 12° SE
Cosmos 1975 2.8 20:46:18 10° N 20:50:15 71° ENE 20:53:47 12° SSE
Cosmos 1992 Rocket 4.1 20:48:27 10° NNW 20:53:41 75° WSW 20:58:33 12° SSE
MOS 1 Rocket 3.8 20:54:22 10° S 20:59:37 71° WSW 21:05:03 10° NNW
USA 281 3.3 20:54:10 12° SSE 21:00:23 84° ENE 21:07:01 10° NNW
Cosmos 220 Rocket 3.9 20:58:30 10° SSW 21:02:48 84° ESE 21:07:09 10° NNE
NOSS 3-3 (A) 3.9 20:58:51 10° SSW 21:04:12 55° SE 21:10:28 10° NE
ARIANE 5 R/B 3.6 21:02:57 13° SE 21:06:23 34° ENE 21:10:17 10° N
Cosmos 1092 Rocket 4.1 21:02:01 10° S 21:08:15 67° E 21:14:32 10° NNE
Cosmos 1328 Rocket 3.7 21:05:06 13° S 21:08:49 53° E 21:13:02 10° NNE
Cosmos 1340 4.2 21:05:55 10° NW 21:08:49 26° W 21:11:42 10° SSW
Cosmos 2195 Rocket 4.4 21:08:25 10° S 21:14:31 84° E 21:20:41 10° NNE
Cosmos 1140 Rocket 4.4 21:14:22 15° SSE 21:17:50 31° ESE 21:22:23 10° NE
Spot 2 Rocket 4.5 21:13:06 10° SSW 21:17:50 41° W 21:22:38 10° NNW
Nadezhda 4 Rocket 4.4 21:12:00 10° SSW 21:18:09 64° WNW 21:24:27 10° N
MetOp-A 4.0 21:14:04 14° S 21:18:13 77° WSW 21:23:21 10° NNW
NOSS 3-4 (A) 3.9 21:12:16 10° NW 21:18:56 77° NE 21:26:14 12° SE
NOSS 3-4 (C) 3.9 21:12:22 10° NW 21:19:01 77° NE 21:26:21 12° SE
Cosmos 1515 Rocket 4.4 21:17:02 17° SSE 21:19:48 34° E 21:23:43 10° NNE
Cosmos 1626 1.7 21:17:57 16° S 21:20:25 73° E 21:23:38 10° NNE
Cosmos 1697 Rocket 2.7 21:21:05 10° NNW 21:26:45 85° ENE 21:31:08 17° SSE
Cosmos 1707 4.0 21:26:10 17° SE 21:27:50 23° E 21:30:47 10° NE
Cosmos 1470 Rocket 3.6 21:24:02 10° N 21:28:31 79° E 21:31:41 19° SSE
BREEZE-M DEB (TANK) 3.0 21:19:46 10° SW 21:28:32 50° SSE 21:31:26 10° E
Cosmos 1633 Rocket 3.3 21:27:02 10° NNW 21:31:25 65° W 21:34:53 16° S
Orbus 7S? 3.9 21:31:59 10° SSW 21:36:46 35° SE 21:39:37 10° ENE
Cosmos 1980 Rocket 2.7 21:31:17 10° NNW 21:36:55 56° NE 21:41:37 15° SE
Cosmos 1666 Rocket 4.3 21:33:09 10° NNW 21:37:18 47° W 21:40:50 14° SSW
NOSS 3-3 (C) 3.8 21:32:19 10° SW 21:37:50 80° SE 21:44:27 10° NE
Lacrosse 5 rocket 1.6 21:36:04 10° WNW 21:40:18 70° NNE 21:44:16 11° ESE
SL-8 R/B 4.1 21:36:06 10° W 21:40:35 42° SSW 21:43:38 19° SE
Cosmos 44 Rocket 3.5 21:37:49 10° NW 21:42:41 57° SW 21:45:49 21° SSE
USA 234 3.9 21:38:45 10° ENE 21:45:09 58° N 21:51:33 10° WNW
Cosmos 1842 3.5 21:44:35 24° SSE 21:46:30 48° E 21:50:04 10° NNE
Cosmos 1674 2.7 21:44:53 25° SSE 21:46:42 54° E 21:50:07 10° NNE
Cosmos 1763 Rocket 4.1 21:43:38 10° NNW 21:48:49 50° ENE 21:52:51 16° SE
Cosmos 1066 Rocket 4.3 21:46:58 14° S 21:52:10 88° E 21:58:04 10° NNE
Cosmos 1933 Rocket 3.6 21:49:04 10° N 21:53:28 75° E 21:56:09 23° SSE
Meteor 2-4 Rocket 4.4 21:47:43 10° SSW 21:53:34 58° WNW 21:59:26 10° N
MINOTAUR 4 R/B 3.8 21:51:43 10° NNE 21:54:38 52° ESE 21:55:42 32° SSE
Lacrosse 4 Rocket 3.5 21:52:22 10° WNW 21:54:57 16° WSW 21:57:33 10° SSW
Meteor 2-12 Rocket 4.5 21:50:05 17° S 21:55:01 76° E 22:01:12 10° NNE
Cosmos 2026 Rocket 4.4 21:50:21 10° SSW 21:56:34 62° WNW 22:02:43 10° N
KORONAS-FOTON 3.9 21:55:04 26° SSE 21:56:58 58° E 22:00:37 10° NNE
Cosmos 407 Rocket 3.9 21:56:18 21° SSE 21:59:31 45° ESE 22:04:30 10° NE
Cosmos 1818 4.1 21:56:10 10° SW 22:01:35 63° NW 22:07:04 10° NE
USA 59 Rocket 2.6 22:02:07 10° W 22:03:58 12° WSW 22:06:01 10° SW
H-2A R/B 2.6 22:01:54 24° SSE 22:04:24 74° ENE 22:08:43 10° NNW
Cosmos 2369 3.9 21:58:50 10° NNW 22:04:34 68° NE 22:08:52 18° SE
Cosmos 1607 4.0 21:59:49 10° SSW 22:06:14 70° SE 22:12:42 10° NE
Cosmos 1766 4.3 22:03:45 10° NNW 22:07:14 37° W 22:09:34 18° SSW
Terra 4.2 22:05:46 10° WSW 22:08:06 14° W 22:10:27 10° NW
Cosmos 1833 Rocket 2.7 22:08:15 10° SSW 22:13:51 83° WNW 22:19:31 10° NNE
ALOS 2 3.1 22:12:16 22° SE 22:14:54 53° ENE 22:19:12 10° N
ATLAS 2AS CENTAUR R/B 4.3 22:08:42 10° NW 22:15:07 36° NNE 22:21:17 10° E
SL-16 R/B 3.5 22:11:29 10° NNW 22:16:42 35° NE 22:21:53 10° ESE
COSMOS 2406 4.1 22:15:19 22° SSE 22:18:06 33° ESE 22:23:11 10° NE
Cosmos 1758 4.2 22:16:27 10° N 22:20:03 36° ENE 22:22:01 22° SE
Cosmos 1470 3.1 22:18:12 10° NNW 22:21:49 51° W 22:23:37 26° SSW
S3M 4.1 22:18:26 10° N 22:24:52 88° W 22:29:12 22° S
Cosmos 2082 Rocket 2.7 22:23:57 23° S 22:27:05 45° ESE 22:32:30 10° NE
Cosmos 2251 Rocket 3.5 22:24:49 22° S 22:28:14 69° ESE 22:33:32 10° NNE
Cosmos 2360 Rocket 4.1 22:23:54 10° NNW 22:28:41 26° NE 22:33:26 10° E
Meteor 2-10 Rocket 3.9 22:29:24 10° N 22:35:15 70° ENE 22:38:54 23° SSE
GEOS 3 Rocket 3.6 22:31:14 10° NE 22:36:27 87° NW 22:41:35 10° SW
Cosmos 1908 3.6 22:34:16 10° NNW 22:37:44 48° W 22:39:14 28° SSW
SL-08 ROCKET BODY 4.5 22:34:31 22° S 22:38:41 81° E 22:44:52 10° NNE
Cosmos 724 4.3 22:35:10 10° SW 22:41:05 87° NW 22:46:57 10° NE
ARIANE 5 R/B 3.8 22:40:25 19° SSW 22:42:47 32° W 22:46:42 10° NNW
Meteor 1-13 Rocket 4.3 22:40:24 21° SSW 22:44:29 87° WNW 22:50:22 10° NNE
Cosmos 2315 Rocket 4.0 22:39:07 10° N 22:45:28 89° W 22:49:34 24° S
H-2A R/B 3.2 22:43:56 10° NNE 22:47:53 31° E 22:49:42 23° SE
Cosmos 2285 Rocket 4.2 22:48:47 14° SW 22:54:23 72° WNW 23:00:47 10° NNE
Cosmos 1346 Rocket 3.1 22:53:17 10° N 22:57:08 57° ENE 22:58:57 28° SE
Meteor 1-22 Rocket 4.3 22:52:41 10° NNW 22:57:58 62° W 23:01:09 25° S
Cosmos 1140 Rocket 4.3 22:54:20 10° SW 22:59:23 49° WNW 23:04:28 10° NNE
Spot 4 4.4 22:58:19 24° SSW 23:00:48 46° W 23:05:25 10° NNW
Cosmos 1733 Rocket 3.0 22:56:41 10° N 23:01:04 82° E 23:03:12 30° SSE
Cosmos 1707 4.0 23:00:27 17° SW 23:02:42 31° WNW 23:06:00 10° N
Cosmos 2278 3.8 22:57:06 10° NNW 23:02:52 77° ENE 23:07:01 19° SE
Cosmos 1400 Rocket 2.7 23:02:59 33° S 23:04:42 82° ESE 23:08:41 10° NNE
Cosmos 1300 2.4 23:01:49 10° NNW 23:05:23 80° W 23:06:40 38° S
Cosmos 2266 Rocket 4.3 23:02:10 19° SSW 23:06:44 62° WNW 23:13:02 10° N
Cosmos 1697 Rocket 4.4 23:06:07 10° NW 23:10:01 19° W 23:12:51 14° SW
Cosmos 1441 Rocket 4.4 23:07:44 10° NNW 23:10:49 28° W 23:12:05 22° SW
Cosmos 2322 Rocket 2.9 23:06:07 10° NNW 23:11:39 51° NE 23:17:10 10° SE
Cosmos 841 Rocket 3.6 23:07:19 10° NNW 23:12:36 77° ENE 23:16:05 22° SSE
Meteor 1-21 4.4 23:11:02 25° S 23:14:21 68° E 23:20:07 10° NNE
Lacrosse 5 rocket 2.1 23:14:43 10° WNW 23:18:26 32° SW 23:19:04 30° SSW
Okean 1-7 3.8 23:18:10 25° SE 23:20:09 40° E 23:24:13 10° NNE
Cosmos 1980 Rocket 3.2 23:15:41 10° NW 23:20:39 32° WSW 23:23:22 21° SSW
Cosmos 2228 Rocket 3.1 23:19:14 28° SSW 23:21:33 79° W 23:26:08 10° N
Cosmos 2333 Rocket 3.1 23:21:39 10° NNW 23:27:13 49° NE 23:32:47 10° SE
USA 234 3.5 23:21:20 10° ESE 23:27:53 75° NNE 23:34:26 10° WNW
Cosmos 540 Rocket 4.1 23:23:13 10° NW 23:28:04 41° WSW 23:30:29 25° SSW
Cosmos 1356 Rocket 3.3 23:27:09 32° S 23:29:00 85° E 23:33:12 10° NNE
Cosmos 1953 2.6 23:26:21 10° N 23:30:14 57° ENE 23:32:08 27° SE
Cosmos 1655 Rocket 4.4 23:26:16 20° SSW 23:30:47 60° WNW 23:37:08 10° N
Genesis I 4.1 23:33:03 26° SE 23:33:29 27° ESE 23:36:33 10° ENE
GP-B 3.5 23:31:45 10° N 23:36:04 53° W 23:38:18 26° SSW
SL-14 R/B 3.7 23:36:11 27° SW 23:37:57 52° WNW 23:41:42 10° N
Cosmos 1703 Rocket 4.3 23:38:29 24° SSE 23:40:45 44° E 23:45:00 10° NNE
Cosmos 1455 2.2 23:38:17 10° N 23:41:44 63° ENE 23:43:13 31° SSE
Cosmos 1862 Rocket 3.7 23:42:08 27° SSW 23:44:21 64° WNW 23:48:42 10° N
Aureole 3 2.9 23:44:34 39° SW 23:45:30 63° WNW 23:48:50 10° N
SJ 16-02 3.0 23:45:36 17° SE 23:47:36 23° E 23:51:01 10° NE
RESURS DK-1 2.9 23:43:35 10° NNW 23:47:37 55° NE 23:51:06 13° SE
Cosmos 676 Rocket 4.1 23:44:45 22° SW 23:48:14 75° WNW 23:53:36 10° NNE
Cosmos 1954 Rocket 4.4 23:45:26 19° SW 23:49:10 63° WNW 23:54:28 10° NNE
ALOS 2 4.3 23:49:40 16° SW 23:51:33 21° W 23:54:55 10° NW
